Showing default

GALAXY 10R, 26056

Orbit data source: Space-Track

GALAXY 10R, 26056 is a payload satellite owned by Panamsat (US) in GEO that was launched on Tue, 25 Jan 2000 UTC via an ARIANE 42L launch vehicle from the French Guiana (FRGUI). Payload-class satellites include a variety of spacecraft equipped with specific instruments for various scientific and technological missions. These include communications satellites like Starlink; space stations such as the ISS; scientific satellites like the Hubble; Earth observation satellites from companies like Planet Labs, Umbra, and HawkEye 360; GPS; miniature CubeSats for education and research; and military/defense satellites.

Loading next visibility...
Identifier
26056, 2000-002A
Orbit
GEO
Country
Flag of USUS
Related business
Manufacturer
Hughes
Mission
Non-operational Commercial Communications
Bus & Motor
HS-601HP, R-4D-14-350
Mass
3,651 kg wet, 1,987 kg dry
Launch date (UTC)
2000-01-25 (26 years ago)
Launch vehicle
ARIANE 42L
Launch site
French Guiana (FRGUI)
Object type
Payload
Rocket body
Debris
Shape & HBR
Box + 2 Pan, 13.1 m
Radar Cross Section
31.196 m², Large (>1 m²)

Expand to show TLE details & history
Last TLE update: 1 day ago

TLE from 1 day ago
0 GALAXY 10R
1 26056U 00002A   26094.49419758  .00000094  00000-0  00000-0 0  9992
2 26056  12.0590  31.7708 0002857 196.6714   6.6131  0.99637858 95590
Epoch: 2026-04-04T11:51Z
TLE epoch observation values (Epoch: 2026-04-04T11:51:38.670Z)
Latitude
-4.74735°
Longitude
-136.11143°
Altitude
35,953.508 km
Speed
3.069 km/s
True Right ascension
15h 38m 27s
True Declination
-4° 44' 33"
Sunlit
Object was in daylight at epoch
Visualization orbit readout
Latitude
Unknown
Longitude
Unknown
Altitude
Unknown
Speed
Unknown
Apparent Right ascension
Unknown
Apparent Declination
Unknown
Sunlit
N/A
Visualization observer readout
Local Sidereal Time
20:51:36
Azimuth
Unknown
Elevation
Unknown
Doppler factor
Unknown
Orbital elements
Apogee altitude
35,978.345 km
Perigee altitude
35,954.149 km
Semi-major axis
42,344.384 km
Eccentricity
0.00029
Inclination
12.059°
RAAN
31.7708°
Arg. of periapsis
196.6714°
True anomaly
6.61687°
Mean anomaly
6.6131°
Eccentric anomaly
6.61499°
Mean motion
0.24909 °/min
Orbital period
1,445.28 mins
BSTAR
0
Loading maneuver chart data...
Computing Atmospheric mass density...
Loading historical data...
Loading historical data...
Loading historical data...
Loading historical data...
Loading historical data...
Loading historical data...
Loading historical data...
Other satellites on launch #2 in the year 2000 (2000-01-25 UTC)

Documentation

Showing up to 5 results
|